Weather in Kaadedhdhoo

Maldives     0°29′15″N   72°59′38″E
temp.,
°C
wind,
m/s
gust,
m/s
humid.,
%
clouds,
%
prec.,
mm/h
press.,
hPa
HPBL,
m
10 may, mon
mon1023:00+29sse337336 0.6 1008601
02:00+29sse4475100 1.8 1005626
05:00+29sse447683 4.2 1006368
08:00+29sse4472100 2.1 1008691
11:00+29sse4474100 3.4 1009490
14:00+29sse337279 2.5 1006581
17:00+30se3369100 3.2 1006705
20:00+29ssw237153 2.9 1009426
11 may, tue
tue1123:00+29sw337284 4.3 1009443
02:00+29ssw337399 3.9 1007394
05:00+29sw4471100 4.1 1007693
08:00+28sw347577 3.3 1009305
11:00+29sw337120 3.6 1009678
14:00+29wsw337081 0.1 1007804
17:00+29sw337178 0.6 1007592
20:00+29sw3373100 3.3 1009530
12 may, wed
wed1223:00+29wsw547597 5.1 1009678
02:00+28wsw6676100 2.8 1007599
05:00+28wsw5579100 6.1 1007434
08:00+29wsw5576100 3.3 1009617
11:00+29sw447373 4.9 1009690
14:00+29wsw667124 1.4 1007824
17:00+29wsw667692 2.4 1006612
20:00+29wsw677883 3.9 1008593
13 may, thu
thu1323:00+28wsw667881 7.6 1008569
02:00+28w6679100 5.3 1006544
05:00+28wnw5679100 13.6 1006582
08:00+29wnw5578100 7.9 1008658
11:00+28wsw5581100 17.9 1008361
14:00+28wsw5582100 8.6 1006339
17:00+27w5583100 17.2 1006382
20:00+27w5686100 8.7 1008485
14 may, fri
fri1423:00+27w6783100 15.6 1008725
02:00+27w81086100 7.6 1006807
05:00+28w101380100 9.0 1005888
08:00+28wsw7978100 0.1 1007827
11:00+28wsw7978100 0.1 10071024
14:00+28w101184100 3.1 1005832
17:00+28sw12148397 4.1 10051004
20:00+29wsw131776100 0.3 10061302